Theta_e
298 298 297 296 297 297 297 297 299 301 303 304 303 306 312 316 318 316 311 311 312 318 322 319 316 317 316 314 311 310 311 310 310 309 309 309 309 308 308 308 308 309 309 309 309 309 310 317 326 329 327 325 323 322 321 319 322 326 324 322 325 326 323 324 329 331 328 322 320 321 318 318 321 320 320 319 320 325 329 334 338 337 332 331 334 337 331
298 297 296 297 297 296 297 298 300 301 303 303 303 309 314 313 314 316 313 312 314 318 318 316 316 317 314 313 311 310 310 310 309 309 309 309 310 309 308 308 309 309 308 309 310 310 311 314 321 325 324 322 320 322 322 319 322 327 324 323 324 322 324 328 329 328 325 321 322 325 323 322 321 322 323 323 323 326 326 328 333 334 333 335 338 335 330
298 297 296 297 296 296 297 298 300 302 303 304 304 309 313 312 314 315 313 312 313 316 316 314 315 316 314 315 315 311 311 310 309 309 310 309 309 309 310 309 310 310 310 311 312 313 313 313 317 322 323 322 320 321 321 319 321 324 325 325 322 321 325 329 328 326 326 326 328 329 329 325 323 324 325 325 326 327 324 325 328 330 328 329 334 333 329
298 297 296 296 296 297 297 299 301 302 304 306 304 306 311 314 314 312 312 314 315 315 316 315 315 316 315 316 315 312 311 310 309 310 310 309 309 310 310 310 312 313 314 314 315 316 315 315 317 319 320 322 320 319 320 320 321 323 323 322 322 324 328 329 328 329 328 327 325 324 325 324 324 326 325 325 326 326 330 331 328 329 329 325 328 330 330
297 296 296 296 296 297 297 299 302 303 307 308 305 307 312 313 315 313 311 315 319 319 319 317 315 313 313 314 312 311 311 309 309 310 310 309 309 311 310 310 312 313 315 318 316 315 317 316 315 316 318 319 318 317 319 319 321 322 319 321 324 326 326 325 324 324 323 321 318 317 320 322 323 324 324 325 325 327 337 338 325 324 329 326 326 328 330
297 296 296 296 296 297 297 300 302 305 309 309 307 312 314 311 313 314 310 313 320 318 316 317 315 312 313 314 312 311 311 310 310 309 310 309 308 310 311 308 309 310 313 316 314 314 319 318 315 316 317 317 319 321 320 318 319 320 319 321 324 324 322 320 320 323 322 319 318 318 319 319 319 320 321 322 324 327 335 335 325 327 334 331 326 327 329
297 296 296 296 296 297 297 299 302 305 309 309 307 311 314 312 313 315 311 312 317 316 314 316 315 312 314 315 312 310 311 311 310 308 311 314 310 309 310 308 307 309 310 313 312 312 316 315 314 316 314 314 321 323 322 322 320 320 322 322 323 325 323 319 319 323 322 319 319 319 318 320 319 318 318 321 325 327 328 327 325 327 331 329 325 327 328
297 296 296 296 296 297 297 299 302 304 307 308 306 307 310 311 312 313 314 315 316 316 314 315 315 312 314 315 311 309 310 311 310 308 310 314 311 309 310 309 308 308 308 311 310 308 309 309 311 314 311 313 319 318 320 325 324 322 324 325 325 324 321 319 322 324 322 321 321 318 318 323 322 318 317 319 325 329 329 328 327 326 326 324 324 327 327
297 296 295 296 297 297 297 299 301 303 305 307 308 308 306 307 307 309 315 318 315 313 312 316 318 314 314 316 311 309 310 309 310 311 310 310 309 309 309 309 309 310 310 311 310 306 306 306 308 309 308 311 316 315 318 324 323 322 323 324 326 326 321 319 323 326 322 321 322 319 319 323 324 319 315 317 323 328 327 326 326 325 324 324 325 327 326
297 296 295 296 296 296 297 299 301 303 305 305 309 310 307 307 308 309 314 315 310 308 309 313 315 310 309 314 312 309 311 309 310 313 311 309 309 308 308 309 310 311 312 312 310 306 305 305 305 305 306 308 309 310 312 315 319 323 325 324 326 327 324 321 322 325 322 319 321 321 320 323 324 318 313 313 319 324 324 323 323 323 323 324 325 325 324
297 296 295 296 297 296 297 298 300 302 304 305 308 309 307 307 309 312 318 315 307 306 309 308 309 306 306 309 309 309 312 311 310 310 309 310 311 308 307 308 308 310 313 312 308 305 304 304 304 304 305 306 307 308 308 310 315 322 326 328 325 323 323 322 322 324 323 320 321 321 321 323 322 316 311 311 315 320 323 323 321 321 322 322 323 323 322
297 297 295 296 296 296 297 298 299 302 304 305 306 306 306 307 309 313 320 314 305 307 310 305 304 306 306 306 306 308 311 311 310 310 310 312 313 311 309 307 307 310 313 310 306 303 304 306 307 307 307 306 307 310 311 311 314 316 320 324 323 320 321 322 322 323 322 321 322 323 322 321 318 315 312 309 311 316 319 320 318 318 318 318 319 320 318
297 296 295 295 296 296 297 298 300 302 304 305 305 305 305 306 309 314 319 313 304 305 307 304 303 306 307 306 305 306 307 308 309 311 311 312 313 312 310 307 306 307 307 305 304 304 307 313 316 316 313 310 310 313 312 311 312 312 314 319 321 321 322 321 321 320 320 321 323 323 320 316 316 316 313 310 310 313 316 318 317 315 314 314 314 314 312
297 296 295 295 296 296 296 298 300 302 304 305 305 304 304 305 308 312 315 312 304 301 304 306 306 307 307 305 305 305 305 306 308 310 311 312 312 312 310 306 304 304 304 305 306 308 312 317 322 321 318 317 316 315 312 311 312 312 312 314 318 321 323 323 320 318 319 321 320 318 317 316 316 315 312 311 311 311 313 317 316 313 312 311 311 311 310
297 296 295 295 296 296 296 298 300 302 303 304 303 303 304 305 307 308 311 314 310 303 302 304 305 306 306 304 304 306 307 308 309 309 309 309 308 308 308 305 303 303 304 306 309 312 313 314 318 321 321 319 317 314 313 313 312 312 311 311 312 317 321 324 322 318 319 321 318 317 319 318 316 314 312 312 312 309 310 314 316 314 312 309 309 310 310
297 296 295 295 296 296 296 297 299 301 303 303 303 304 303 305 306 305 307 314 315 307 301 302 303 304 305 304 304 304 306 307 307 310 313 310 305 303 303 303 303 304 306 309 310 311 312 313 315 319 318 316 315 314 314 316 316 314 312 310 311 312 316 321 323 319 319 322 320 318 319 317 314 313 312 312 312 309 310 316 317 314 312 309 308 308 308
297 297 295 295 296 296 296 297 299 301 303 302 302 304 304 304 305 304 303 307 308 302 299 301 303 303 304 304 303 304 306 306 305 308 311 307 304 303 302 303 304 304 307 313 314 312 314 315 317 320 316 311 313 316 315 316 318 316 314 315 315 314 315 318 321 320 319 320 318 316 315 314 311 309 310 310 310 311 315 320 317 313 312 311 310 309 308
297 297 296 295 295 296 295 296 298 301 303 303 303 303 304 304 304 302 304 308 308 302 299 300 302 301 301 301 302 303 305 305 306 308 308 306 304 302 300 302 305 305 306 312 315 312 312 312 313 318 317 311 313 317 316 315 316 314 315 316 316 317 317 316 317 317 316 317 315 314 313 312 308 307 309 309 309 313 318 319 315 313 312 311 309 310 309
297 297 296 295 295 295 296 296 298 300 302 304 304 304 304 304 303 302 304 308 309 303 299 299 300 299 299 300 302 304 303 302 305 308 308 307 305 302 301 303 305 305 305 311 314 311 309 309 309 315 318 312 312 316 313 310 311 311 313 316 315 315 316 316 315 315 314 314 314 312 312 310 306 306 308 308 312 317 316 311 309 311 311 308 307 307 306
297 297 296 295 295 295 296 296 297 300 302 304 305 305 304 303 304 304 304 306 307 303 299 299 299 298 299 300 302 303 303 303 305 305 305 304 303 306 310 309 306 305 305 309 312 309 307 308 308 310 312 309 310 314 311 307 307 307 309 313 312 312 315 315 313 313 313 313 312 313 312 308 305 307 310 310 312 313 309 305 304 306 306 306 306 305 304
297 297 296 296 295 295 296 295 296 299 302 304 304 304 304 302 303 305 304 304 308 306 301 299 299 298 300 300 300 301 302 302 302 302 303 304 304 307 310 307 304 304 304 307 310 308 305 307 308 307 307 306 308 311 311 310 309 306 308 312 311 311 315 315 312 311 312 312 310 309 308 305 304 308 309 307 305 305 305 304 304 304 304 304 305 304 303
296 297 297 296 295 295 296 296 296 299 302 305 304 303 303 302 303 306 304 303 306 307 302 300 299 299 300 300 300 301 301 300 300 301 302 306 306 306 305 304 303 303 303 307 309 308 306 306 306 307 308 306 306 307 309 312 311 307 308 313 311 309 310 311 309 308 308 309 307 306 305 303 304 305 304 303 302 302 302 302 302 303 303 303 303 304 303
296 296 297 296 295 295 296 295 296 299 302 304 304 303 302 302 301 303 304 304 304 303 300 300 301 300 300 300 300 300 301 301 301 300 302 307 309 307 305 305 303 303 305 307 305 304 306 305 305 308 307 304 306 308 308 308 308 306 307 309 306 306 307 308 308 306 305 305 305 304 304 304 303 303 302 302 302 301 301 302 302 302 302 301 301 302 302
296 296 297 297 295 295 296 295 296 299 302 303 303 303 303 301 300 302 305 308 307 305 302 303 306 304 301 301 301 300 301 301 301 300 301 304 307 307 307 305 303 304 308 307 302 304 307 305 304 308 305 303 306 309 308 306 305 306 309 307 304 306 310 310 309 308 307 307 304 303 304 303 302 303 302 302 302 301 301 302 302 302 303 302 302 302 302
296 296 296 296 296 295 296 296 296 298 301 302 303 303 303 301 300 302 306 309 310 310 307 306 306 304 300 300 301 300 301 301 301 301 301 301 302 304 304 302 302 303 305 305 305 307 308 304 304 307 304 303 305 306 306 307 306 307 309 307 305 307 310 309 309 309 309 307 304 303 304 303 302 303 302 301 302 302 302 302 302 303 303 302 302 303 304
296 296 296 296 296 295 296 296 295 297 299 301 301 303 303 300 299 302 304 305 307 310 308 305 304 302 300 300 301 300 301 302 301 301 301 300 301 302 300 300 302 302 301 304 308 309 308 307 307 307 304 303 304 304 303 304 307 309 308 304 304 307 309 308 307 307 307 305 304 304 304 303 302 302 302 302 302 302 302 303 302 302 302 302 302 302 302
296 296 296 296 296 295 295 296 295 296 297 299 301 303 302 299 298 301 303 304 306 308 309 308 307 303 300 300 301 301 301 301 301 301 302 301 301 301 300 300 303 304 306 309 310 308 309 309 307 304 303 303 305 306 303 302 306 309 306 303 305 308 307 306 306 307 307 307 305 305 306 304 302 302 302 302 302 302 302 302 302 303 302 303 303 302 300
296 296 297 297 296 295 296 297 296 295 296 298 301 303 301 297 297 299 301 303 306 310 312 312 308 303 301 301 301 301 302 302 301 302 302 301 301 300 299 300 303 306 309 310 308 307 308 307 303 303 304 305 306 306 305 305 308 307 303 303 306 307 307 309 310 309 308 309 307 306 306 305 303 303 303 303 302 303 303 303 304 304 301 301 303 303 301
296 297 297 296 295 295 296 297 297 297 298 301 303 304 303 300 298 297 297 300 303 307 312 313 308 304 304 303 301 300 302 302 302 302 301 301 301 299 298 300 303 305 306 307 308 308 306 304 303 303 302 302 304 306 306 307 307 303 301 301 302 303 305 309 310 307 306 307 306 305 305 304 303 304 304 303 301 302 303 303 302 300 298 297 299 300 301
297 297 296 295 295 295 296 299 300 301 303 305 305 306 306 305 300 296 296 299 302 304 309 312 309 304 303 302 300 300 302 302 302 302 300 300 300 299 298 300 303 306 309 309 308 306 303 303 306 306 302 302 305 304 304 305 304 300 300 301 301 302 304 305 306 306 306 305 304 303 303 303 302 301 301 301 299 299 301 301 299 296 296 296 296 295 296
297 296 295 296 296 296 298 301 301 301 302 303 305 307 308 306 300 295 296 299 302 304 308 311 309 305 304 303 302 300 301 301 302 302 300 299 300 300 300 300 301 304 308 309 307 306 303 302 304 304 304 306 308 306 304 305 304 300 299 300 301 302 303 302 303 305 304 303 303 302 301 301 300 299 299 299 298 298 299 298 297 296 296 296 296 295 295
296 296 296 296 296 297 300 301 301 300 300 301 302 303 302 300 297 295 297 300 302 304 307 310 307 303 304 306 304 300 300 301 302 303 302 301 301 301 301 302 302 301 303 306 306 304 303 302 303 303 303 306 309 308 306 305 303 299 299 301 301 301 301 301 301 302 302 302 302 301 300 300 301 300 299 298 297 297 297 297 297 297 296 296 296 296 295
296 295 296 297 297 299 301 300 299 300 302 303 302 300 297 296 295 296 299 303 305 304 305 308 306 302 302 305 304 301 302 303 305 306 305 301 300 302 303 305 306 305 303 303 303 302 303 306 308 305 304 306 309 308 305 303 301 299 300 302 303 301 301 300 300 301 301 301 301 301 301 301 300 300 298 297 297 297 297 297 297 297 297 296 297 296 294
296 296 296 297 298 299 299 300 301 302 303 304 304 300 297 295 294 296 300 305 306 305 303 305 305 303 303 305 305 302 301 304 306 307 305 302 301 302 304 306 309 308 305 304 304 304 305 307 308 306 304 306 308 306 302 299 299 300 300 301 302 302 301 300 300 301 301 301 300 300 299 298 298 298 298 298 299 297 297 297 297 298 300 300 298 296 295
296 296 297 297 298 298 299 301 303 304 304 304 302 300 297 295 294 296 300 304 307 308 305 303 303 303 305 306 305 301 301 304 305 303 303 304 303 301 303 307 309 306 303 304 307 306 303 303 305 306 305 305 304 302 299 298 300 301 301 301 301 302 301 300 300 301 302 302 303 301 298 297 299 299 300 301 300 297 297 297 296 297 301 302 298 295 294
296 296 296 297 297 299 301 302 302 303 304 303 301 300 298 296 295 296 298 301 304 306 306 305 305 304 305 306 304 301 301 305 306 304 305 307 306 304 307 310 308 305 304 307 307 304 302 303 305 305 305 304 302 300 299 300 301 302 301 301 302 303 303 301 301 301 303 304 305 304 303 302 302 302 302 302 299 297 298 299 298 298 302 303 299 295 294
296 297 298 300 301 302 304 303 301 300 300 298 298 299 299 298 299 301 301 302 303 302 305 307 306 303 304 306 305 303 302 304 305 305 305 305 303 304 307 307 304 305 309 310 305 300 301 305 307 304 302 301 300 299 300 301 301 301 301 302 302 304 304 301 301 302 303 303 303 304 304 303 303 303 302 301 299 298 299 300 299 299 300 301 298 296 294
298 299 301 303 304 305 306 303 299 298 298 297 299 302 302 302 304 305 304 303 302 302 305 308 306 304 307 309 305 302 302 303 305 306 304 302 301 303 304 303 302 304 306 303 300 301 303 306 307 303 300 300 300 298 299 301 302 302 303 303 303 305 304 302 301 302 303 302 301 302 302 301 301 301 300 300 300 299 298 296 295 295 296 296 296 295 294
299 301 301 302 304 305 304 301 297 298 300 300 301 304 303 302 303 303 303 302 302 303 307 308 305 305 308 308 303 300 302 306 308 306 303 301 301 303 303 302 302 304 303 300 302 305 304 303 305 303 301 301 301 299 299 301 302 302 302 300 299 300 301 300 300 301 302 302 302 302 302 301 300 299 299 300 301 300 296 294 294 296 296 296 295 294 294
299 301 302 303 303 302 300 298 297 299 303 303 302 302 301 302 302 302 302 303 303 303 306 307 304 302 304 306 305 302 301 303 305 305 303 302 302 302 302 301 301 303 301 300 302 304 301 301 303 303 301 300 299 298 300 302 303 302 300 297 295 296 297 298 297 298 299 299 299 299 299 298 297 297 298 300 301 300 297 296 296 296 296 296 295 295 295
299 300 302 302 302 301 299 299 299 300 302 302 302 301 300 302 303 303 304 304 303 301 303 306 306 303 303 305 307 304 301 300 303 305 305 304 303 302 301 301 302 302 300 299 301 303 302 302 302 302 301 300 298 298 300 302 302 302 300 296 295 296 297 296 296 297 297 297 296 296 297 296 295 296 296 297 298 297 297 296 296 296 296 296 296 295 295
297 299 301 300 301 301 301 301 301 300 300 300 301 301 301 301 302 303 304 304 303 302 302 304 304 302 300 301 303 304 302 300 303 305 305 302 302 302 302 301 301 300 300 301 302 304 304 302 300 300 301 300 298 299 302 302 303 304 301 297 296 298 297 296 296 297 296 296 295 296 296 296 296 296 297 296 296 296 296 296 297 296 296 296 295 295 295
299 301 302 302 302 302 302 301 300 299 300 300 301 301 300 301 302 303 302 302 303 304 303 301 302 303 302 302 302 303 302 301 302 305 304 301 300 302 302 301 300 300 302 303 303 302 302 301 301 301 302 301 300 301 303 302 303 305 301 297 297 298 297 297 297 297 297 297 297 296 296 297 296 297 297 297 297 296 296 297 297 297 296 296 295 295 295
301 301 302 302 301 299 300 301 300 299 299 300 300 301 301 302 304 305 302 301 303 304 303 302 303 305 304 303 303 303 302 302 303 303 302 302 302 301 300 300 301 302 303 302 301 301 301 301 301 302 302 301 300 301 301 302 305 305 301 298 297 298 297 297 297 297 297 297 297 296 297 297 297 297 297 297 297 296 296 297 297 297 296 295 295 295 295
302 301 302 302 300 298 299 300 299 299 300 300 301 303 304 304 305 305 303 302 304 304 302 304 307 307 304 303 304 303 303 303 303 301 301 302 302 300 299 300 302 302 301 301 302 302 300 299 299 301 301 300 301 301 301 303 304 302 301 300 299 298 297 297 297 297 297 297 297 297 297 297 297 297 297 297 297 297 296 296 297 296 296 295 295 295 295
302 302 301 300 299 299 299 298 299 301 302 301 303 305 306 305 304 302 301 303 305 303 301 303 306 306 304 303 303 304 303 303 302 301 303 303 301 299 301 302 302 301 301 301 301 300 298 298 300 300 300 300 301 301 302 302 300 299 301 303 301 297 297 297 297 297 297 297 297 297 297 297 297 297 297 297 297 297 297 297 297 297 296 296 295 295 295
301 301 301 302 301 300 299 300 303 306 305 303 302 303 303 303 303 302 302 304 305 304 304 306 306 305 304 303 303 302 303 304 302 302 302 302 300 300 301 303 301 300 300 300 299 298 299 300 302 301 299 300 301 301 301 302 301 300 302 303 301 297 297 297 297 297 298 297 297 297 297 297 297 297 296 297 297 297 297 298 297 297 297 297 296 296 295
301 300 301 303 302 300 300 303 306 305 302 301 301 301 302 303 302 300 301 305 305 305 306 307 306 304 304 305 304 303 303 303 302 301 301 301 301 300 301 301 301 300 300 300 300 300 300 300 301 300 300 300 301 300 300 301 301 301 302 302 300 298 297 296 296 297 298 298 298 298 298 297 298 297 297 297 297 296 297 297 297 297 297 297 296 296 295
301 300 300 301 302 302 303 304 303 301 299 301 302 302 302 303 302 300 301 305 306 304 303 305 305 304 302 302 303 303 302 301 301 300 301 301 301 300 300 301 300 299 299 301 302 302 301 300 300 302 302 302 301 302 302 301 300 299 300 300 299 298 297 297 297 297 297 297 298 298 298 297 297 297 297 296 296 296 297 297 297 297 297 297 297 296 295
299 299 301 303 305 306 307 305 303 302 302 302 302 302 301 302 302 300 300 303 307 306 304 304 306 305 303 301 301 301 301 301 301 301 301 301 300 300 301 301 300 299 300 303 303 302 302 301 301 303 303 302 302 303 302 300 298 298 298 298 298 298 298 298 297 297 297 297 297 297 297 297 297 297 297 297 296 297 297 297 297 297 297 297 297 297 296
299 300 303 305 305 304 305 304 305 304 303 301 301 302 302 304 304 301 299 304 311 311 306 303 303 303 303 302 301 300 300 301 302 302 301 301 301 301 301 300 300 302 304 304 302 302 303 303 302 302 302 302 303 302 300 298 298 298 298 298 298 298 298 298 297 297 297 298 297 297 298 298 297 297 297 297 297 297 296 297 297 297 297 297 297 297 297
300 301 304 305 304 303 304 304 304 303 302 301 302 303 303 304 303 300 299 304 309 308 303 302 303 302 301 301 301 300 300 301 302 301 301 301 301 302 302 303 304 306 306 303 300 301 303 304 302 300 301 301 301 300 298 298 298 298 298 298 297 297 298 297 297 297 298 298 297 298 297 298 298 298 297 297 297 296 296 296 297 297 297 297 297 297 297
Wind_Speed
16 16 18 20 21 22 23 24 23 23 21 15 11 9 2 2 1 4 11 14 10 6 3 3 1 2 3 3 4 5 4 4 5 5 4 4 4 4 3 3 3 2 3 3 5 6 3 2 1 2 2 3 3 1 3 4 4 3 1 3 3 1 2 1 3 4 3 4 2 8 8 7 5 4 4 3 1 4 6 5 4 3 1 2 3 1 2
16 16 18 20 21 22 23 23 23 22 19 12 7 4 1 1 3 2 9 13 6 4 1 1 2 3 3 3 4 4 3 2 4 4 3 3 3 2 3 5 3 3 4 3 5 6 3 2 1 1 2 3 3 4 6 6 4 2 1 1 2 2 0 1 2 2 3 4 2 3 5 5 3 4 5 6 5 1 3 2 4 3 3 5 5 2 3
16 16 19 20 21 22 23 23 23 23 17 8 2 1 0 1 2 2 4 8 4 2 3 3 1 3 3 4 4 5 3 2 2 3 2 3 3 1 2 4 3 3 4 3 5 6 3 1 2 2 2 3 4 4 6 7 5 3 4 5 2 0 1 2 3 2 3 2 2 3 1 1 1 4 7 9 8 4 2 3 4 2 4 5 5 3 3
16 17 19 20 21 23 23 23 24 23 16 6 5 4 0 2 0 1 1 0 2 0 1 3 2 1 2 2 4 5 4 3 3 4 3 5 5 2 2 4 4 5 5 5 6 6 4 4 3 3 4 3 3 3 6 7 6 9 13 11 4 3 2 2 3 4 5 4 3 3 4 5 3 5 9 10 9 5 3 5 4 5 5 2 2 7 9
16 17 19 20 22 23 24 25 26 23 15 5 6 3 0 2 1 1 1 2 2 2 3 3 2 0 3 1 3 5 6 5 5 5 3 4 6 3 3 6 6 4 5 4 4 5 5 5 4 4 4 3 3 4 5 6 8 12 12 9 4 4 4 4 3 1 1 2 2 5 9 9 7 7 9 11 11 10 7 3 3 7 7 2 4 11 13
17 18 19 20 22 24 25 26 26 21 12 1 5 2 0 1 1 2 3 1 0 1 1 1 3 4 3 2 3 4 6 5 3 4 3 3 6 4 4 8 8 6 5 3 2 4 4 4 4 3 4 3 5 5 4 5 7 9 6 4 4 4 3 5 5 5 4 5 4 7 11 10 10 10 10 10 11 10 8 4 2 3 6 6 7 12 12
17 18 19 20 21 23 25 27 26 19 10 5 6 2 1 1 1 2 2 2 3 3 2 2 5 5 3 2 3 3 5 5 3 3 4 4 5 4 3 8 10 8 6 4 3 3 2 3 3 2 3 4 3 3 3 4 5 5 4 3 3 3 2 4 4 4 6 9 7 5 9 9 9 10 9 9 9 7 6 6 5 2 5 10 13 12 7
17 18 19 20 21 23 25 26 26 19 9 5 6 4 2 1 0 2 2 3 1 2 0 3 5 3 3 2 2 2 3 4 4 3 3 2 4 4 4 7 9 7 5 5 3 1 2 2 4 3 3 5 2 2 1 1 4 3 3 2 2 3 1 3 3 3 5 8 10 7 7 9 9 9 10 10 10 8 6 6 6 6 6 10 14 13 6
18 18 19 19 20 23 24 26 27 22 12 6 4 4 4 2 3 1 2 2 3 1 2 3 4 2 3 0 1 2 2 3 3 3 1 2 0 2 3 6 7 5 6 5 3 4 3 4 8 7 4 4 2 1 1 2 1 2 1 1 1 3 2 2 2 3 3 6 8 6 4 10 10 10 12 11 8 5 4 4 3 4 7 10 12 9 5
18 18 18 19 19 21 23 25 26 24 17 11 5 3 7 5 2 2 4 2 4 2 2 3 4 2 2 2 2 2 4 4 2 2 3 1 1 2 3 3 3 3 5 6 6 7 6 7 10 8 6 7 5 4 5 4 3 2 1 2 1 3 4 1 1 2 2 6 7 4 2 6 6 6 8 7 5 3 2 3 4 4 5 8 7 5 5
17 17 17 18 18 20 22 23 26 24 19 14 6 3 8 6 2 2 4 4 4 3 2 4 4 2 4 4 2 2 3 4 2 2 1 4 3 3 3 2 2 2 4 7 7 7 8 10 10 7 7 8 6 3 5 4 1 2 3 3 1 2 5 4 2 2 0 5 6 3 2 3 1 1 3 5 5 3 2 3 5 5 3 3 5 6 7
17 16 17 17 18 19 20 21 24 24 19 13 7 6 11 9 1 1 5 5 3 4 3 3 2 2 6 7 4 1 1 3 4 2 1 4 5 4 3 0 2 2 7 8 7 8 8 8 6 5 6 6 1 4 6 6 6 5 3 4 4 3 4 3 1 2 2 2 4 3 2 1 1 2 3 5 5 4 6 8 7 8 6 6 8 9 9
17 16 16 17 17 18 19 20 22 22 18 12 9 10 14 11 4 2 4 5 3 4 2 2 5 6 7 7 6 4 3 4 6 3 2 4 4 4 3 1 2 5 8 8 8 6 6 5 3 2 2 2 4 6 9 11 10 7 4 4 5 5 4 3 2 2 2 1 2 2 1 2 2 3 5 5 5 5 6 8 8 8 6 7 9 9 10
17 16 15 16 16 17 18 19 20 20 16 12 10 13 16 13 5 2 3 5 3 3 1 3 6 7 7 6 5 5 5 7 7 5 3 3 3 5 4 2 5 9 7 5 5 3 2 3 3 3 4 4 4 3 4 7 9 9 8 6 4 4 4 3 2 1 2 2 2 2 1 2 3 3 4 2 1 3 2 3 5 6 5 8 10 11 11
16 15 15 15 15 16 17 17 19 19 15 12 12 16 20 16 5 2 3 5 4 3 4 2 3 4 5 6 6 5 5 6 5 5 4 2 2 4 4 5 10 11 5 2 2 2 2 2 3 3 3 2 2 1 2 2 4 7 7 6 6 5 3 4 3 1 2 3 3 2 1 1 1 3 4 2 4 3 2 1 3 6 4 8 12 12 12
16 15 14 15 14 14 16 16 17 18 16 13 13 18 23 20 8 5 4 4 5 2 3 2 1 2 3 3 4 4 3 3 3 4 5 4 4 6 6 7 9 9 6 3 2 2 3 2 2 2 1 1 2 0 2 2 2 5 5 7 11 9 4 4 4 2 2 3 3 2 1 1 2 5 7 4 3 3 3 1 2 5 3 6 10 11 11
16 15 14 14 14 14 14 15 16 17 16 13 13 17 23 22 13 8 6 4 5 2 4 3 3 4 3 3 4 3 3 3 2 1 2 4 4 6 8 8 8 9 8 4 3 4 4 2 2 3 1 1 2 2 1 1 2 4 6 6 9 8 5 4 4 2 2 3 3 2 1 1 3 6 7 5 3 4 2 2 1 2 3 5 7 8 7
16 15 14 13 13 12 13 14 15 17 15 12 12 15 22 24 17 10 7 4 5 2 3 4 6 4 3 2 1 2 2 3 2 1 2 3 3 4 6 6 6 7 6 4 3 4 4 3 2 3 1 2 2 3 1 2 1 1 2 3 4 4 3 3 4 3 3 3 3 1 1 2 4 6 8 5 2 2 2 2 3 2 4 5 7 7 5
16 15 14 13 12 12 13 12 13 16 16 13 11 13 19 23 19 13 8 4 4 3 1 4 7 4 2 3 2 2 2 2 1 2 2 3 4 5 5 3 3 4 4 4 3 3 3 3 2 2 3 3 2 3 2 3 1 0 1 3 3 2 3 3 2 2 2 3 3 1 1 3 5 7 6 3 1 2 1 1 1 2 4 5 7 9 8
15 15 14 12 11 10 11 11 12 14 16 15 11 11 14 18 19 15 9 3 4 3 1 3 7 6 3 4 4 3 3 3 3 3 2 2 5 4 4 3 3 4 4 4 4 3 3 3 3 2 3 2 2 2 3 3 3 2 2 2 2 1 2 2 2 2 2 3 3 2 1 4 9 7 4 3 2 1 0 3 5 5 5 6 6 7 9
15 15 14 12 10 9 10 10 10 11 14 15 12 10 12 15 16 14 8 4 6 3 1 3 8 8 7 7 7 8 6 3 2 1 1 3 3 3 4 2 3 2 3 2 2 2 2 1 2 2 2 2 2 2 2 2 4 4 2 4 2 2 1 1 0 1 2 2 2 2 0 5 8 5 3 2 2 1 2 4 5 6 5 5 5 5 7
15 15 14 12 9 7 8 9 9 10 12 13 12 11 12 15 15 12 7 5 6 4 3 4 7 9 11 11 10 11 9 6 4 3 2 0 3 3 4 1 2 1 0 2 2 2 2 1 1 2 2 2 3 3 2 3 2 4 4 4 3 2 3 5 2 3 3 3 3 3 2 3 6 5 5 5 4 5 6 8 7 5 5 4 6 6 6
14 15 14 12 8 6 6 7 8 9 11 12 13 13 14 16 16 11 6 6 6 5 4 5 6 7 8 8 8 9 8 8 9 10 7 4 2 2 2 1 1 1 0 2 2 1 1 0 0 2 2 2 2 4 4 4 3 2 4 4 2 1 4 6 4 5 6 6 4 4 4 5 6 6 5 6 7 6 7 9 8 6 6 6 7 7 7
14 14 14 12 8 5 4 5 6 7 9 11 12 12 13 15 16 12 7 5 4 3 5 6 4 2 2 5 7 8 8 7 8 11 12 8 4 1 2 2 1 1 3 3 2 2 1 0 0 2 3 2 2 3 3 3 2 2 3 3 2 2 3 5 4 4 4 4 3 4 6 5 6 6 6 7 8 7 7 8 7 6 7 8 8 9 9
14 14 14 12 8 4 3 3 4 5 6 9 11 11 12 14 14 10 6 4 3 3 2 3 2 1 4 9 9 9 10 8 7 8 10 10 6 3 1 3 1 0 4 4 1 4 3 2 2 3 3 2 2 3 2 2 1 2 3 2 2 2 3 5 4 3 3 3 4 4 5 5 4 5 6 6 7 7 6 6 6 6 7 8 9 10 9
13 14 14 12 8 3 2 3 4 4 4 6 9 11 11 12 11 8 5 4 2 3 4 0 3 1 8 11 8 8 10 9 6 6 7 9 7 4 2 3 4 2 1 2 4 4 3 3 3 3 2 2 2 2 2 2 1 3 4 2 2 1 3 3 3 4 4 4 4 5 6 5 5 5 5 5 6 7 6 5 6 6 6 6 8 9 8
13 14 14 13 7 2 3 3 3 3 3 3 7 9 9 10 9 8 8 5 2 2 3 0 3 2 5 8 8 10 12 9 7 7 9 9 8 9 9 6 4 4 4 4 3 3 4 4 3 2 1 1 2 2 2 2 3 4 3 4 3 3 3 3 5 5 3 3 4 6 5 2 1 3 6 5 5 7 7 6 5 6 6 6 6 6 7
13 13 14 11 5 1 4 4 3 4 3 3 5 8 10 11 11 8 7 7 4 3 3 2 3 4 3 3 6 9 9 7 6 8 11 10 8 10 12 8 4 3 4 3 3 3 4 3 2 1 0 1 2 3 2 2 4 4 3 4 3 3 4 3 4 4 4 5 6 6 5 4 4 4 5 5 5 6 6 6 5 5 5 5 5 5 6
14 13 12 8 2 4 5 5 5 5 4 5 6 7 7 9 11 9 6 6 5 4 3 1 2 2 1 1 3 5 4 3 6 11 13 12 10 10 11 8 4 3 3 3 3 3 2 1 1 0 0 2 3 2 3 3 4 3 3 4 4 2 2 5 7 5 2 3 5 5 6 4 4 4 5 5 6 7 5 4 5 5 5 6 5 4 6
13 11 8 5 4 5 6 7 7 6 4 6 6 5 3 4 8 9 6 4 4 4 3 3 1 1 1 1 2 3 3 2 7 12 14 12 8 6 7 6 4 4 4 3 3 3 1 1 1 2 2 2 4 3 2 3 3 2 4 4 5 6 5 4 4 4 3 3 3 4 6 5 4 5 5 6 9 9 5 4 6 7 9 11 9 7 10
11 9 6 4 5 6 7 8 7 7 6 5 5 3 2 0 4 7 5 2 2 3 4 3 1 1 3 2 2 2 2 2 4 7 8 8 7 6 6 5 4 4 4 2 2 2 2 1 2 3 4 3 4 4 2 3 4 2 3 4 6 6 5 5 5 5 5 5 6 7 6 5 5 5 5 5 9 10 6 4 7 8 10 12 12 12 15
9 6 4 4 5 7 7 7 7 8 9 9 7 5 2 1 3 6 5 2 1 2 4 3 1 1 1 3 3 6 6 4 3 4 5 5 6 7 7 5 3 3 3 3 2 2 1 1 1 2 3 3 4 3 3 4 4 3 2 4 6 6 6 6 6 6 5 6 7 8 6 4 4 5 4 5 9 11 8 6 6 7 7 8 11 14 15
7 4 3 4 6 6 6 6 7 7 8 8 7 5 4 3 4 5 4 3 2 2 3 3 2 0 1 2 3 7 8 4 3 4 4 3 3 3 4 4 3 3 4 3 1 1 1 2 2 2 3 3 4 4 3 3 3 5 4 5 6 6 7 7 7 7 6 5 6 6 4 1 2 4 6 8 10 11 10 8 7 6 6 6 7 9 11
5 3 3 4 5 5 5 5 5 5 4 3 3 3 6 5 3 4 4 3 2 2 2 3 2 0 2 1 2 5 5 3 2 2 2 3 3 3 2 3 3 3 3 2 2 2 2 2 2 2 3 3 4 4 3 2 1 2 3 3 4 6 7 7 7 7 6 5 6 6 6 6 5 4 5 6 7 8 9 9 8 7 6 6 5 7 11
3 2 3 4 5 4 3 3 3 3 2 1 1 3 6 5 3 4 4 3 3 2 1 2 2 1 1 2 1 4 4 3 1 1 1 2 4 3 2 2 3 2 1 1 2 3 2 1 2 2 2 2 3 3 2 2 3 3 4 3 2 5 6 5 4 5 5 5 6 5 6 7 6 3 1 4 5 5 6 7 7 7 6 5 5 7 10
3 3 4 4 4 2 2 2 2 2 1 1 2 4 6 5 4 4 4 4 5 3 1 1 3 2 2 3 1 4 4 3 1 2 2 2 3 3 2 3 2 1 1 2 3 2 2 1 2 2 3 3 3 0 4 6 6 5 4 3 2 3 4 5 6 6 5 6 6 5 5 6 5 3 1 2 4 4 5 5 6 6 6 6 6 7 8
4 4 4 3 2 2 2 2 1 2 1 1 2 4 4 4 3 4 4 4 4 3 2 3 2 1 1 3 1 3 3 2 1 3 3 2 2 2 2 3 2 2 2 4 2 2 2 1 3 3 2 2 2 2 4 5 6 5 5 4 1 1 4 6 6 7 6 6 6 6 5 5 4 3 4 4 2 3 5 6 6 7 7 7 7 8 10
4 3 3 3 3 2 1 2 2 2 2 2 3 3 2 2 3 3 2 2 2 2 2 4 2 2 2 3 1 3 2 1 2 2 1 0 1 2 2 2 1 1 2 2 2 1 2 3 3 4 2 2 1 0 1 4 5 4 5 5 4 4 5 6 6 8 7 4 3 4 4 3 2 3 2 4 3 2 5 7 8 8 10 11 11 12 13
3 2 3 3 2 0 1 2 3 3 2 3 3 2 1 2 3 1 2 1 1 2 2 3 1 1 3 4 1 3 2 3 3 3 1 1 1 1 1 1 1 2 3 1 3 1 3 2 2 4 2 3 3 2 1 4 5 3 3 5 5 5 6 6 6 8 8 6 6 6 5 4 3 2 2 2 1 2 2 6 8 9 10 12 13 14 13
2 2 2 1 0 2 3 3 3 2 2 2 3 2 1 2 1 1 0 2 2 1 1 2 1 1 3 5 2 2 2 2 2 2 1 0 0 1 1 1 0 2 2 1 2 1 2 1 2 3 0 2 1 1 2 5 6 4 4 7 8 8 6 5 5 8 10 9 8 8 7 7 7 6 5 5 3 3 4 4 6 8 8 10 12 13 12
3 2 1 2 3 4 3 3 3 3 2 2 2 2 1 1 1 0 2 2 1 1 1 2 2 3 3 3 3 1 2 1 1 3 2 0 1 2 2 1 0 2 2 2 2 1 3 3 2 1 2 4 3 2 3 5 5 4 4 7 10 11 11 9 6 3 4 5 5 5 7 9 9 9 9 8 7 6 5 4 4 5 6 9 12 12 11
2 1 2 4 5 4 2 2 2 2 2 2 2 1 0 1 1 1 1 1 1 1 1 1 2 1 0 1 2 1 1 1 1 3 2 1 1 2 1 1 2 3 0 3 1 3 3 2 1 1 4 5 4 4 5 5 4 3 4 6 8 9 9 9 9 9 6 6 8 8 8 8 9 10 9 8 6 5 5 6 5 4 5 8 11 12 12
0 1 2 4 3 2 2 2 1 1 2 2 1 1 1 1 1 1 0 1 0 1 1 1 1 1 1 1 1 0 1 1 1 2 2 0 1 1 2 2 2 1 2 1 2 3 1 1 2 4 5 4 3 4 5 5 4 3 3 3 4 5 5 5 6 7 8 6 6 7 8 9 9 8 6 4 4 3 3 5 7 7 5 6 9 12 12
1 1 1 2 1 1 2 1 1 1 1 0 1 2 1 1 1 1 1 1 1 1 0 0 2 3 1 1 1 1 1 1 1 2 1 1 1 2 2 0 1 2 1 2 2 1 1 1 2 3 4 3 3 3 4 5 5 4 2 1 1 2 2 2 2 3 5 7 5 5 7 8 6 4 3 2 1 2 3 5 8 8 6 5 9 12 13
1 1 3 3 2 2 1 1 1 1 1 1 1 2 3 2 1 2 2 2 1 2 2 2 4 4 1 1 1 1 0 1 1 1 0 1 2 2 0 1 1 1 2 2 1 1 1 1 2 2 2 3 4 4 3 4 4 4 4 2 1 1 1 1 2 3 3 3 3 4 5 5 5 4 5 5 5 2 3 5 8 8 7 6 7 11 14
1 0 3 3 1 2 1 1 1 1 1 2 2 3 4 4 4 3 1 1 3 4 3 3 5 4 1 1 1 0 0 1 1 0 0 2 2 0 1 1 2 3 3 2 2 1 0 2 3 2 2 4 4 3 4 4 3 4 5 3 3 4 5 4 4 5 6 6 4 2 2 2 4 6 6 6 5 3 2 3 4 4 5 7 7 8 12
1 0 2 3 0 1 1 1 2 2 2 3 3 4 5 4 3 2 2 2 4 4 3 3 3 3 1 1 1 1 1 2 1 1 1 2 1 1 1 3 2 0 1 1 0 2 3 3 3 3 2 3 3 3 2 1 1 3 3 2 2 2 3 5 7 8 8 8 8 7 6 6 7 9 10 11 11 10 8 7 5 4 6 7 7 5 8
0 0 2 1 1 1 1 2 2 1 0 2 4 4 4 4 4 3 2 2 4 4 4 3 3 2 2 1 1 0 1 2 1 1 1 2 1 1 2 2 1 1 1 2 2 3 3 3 4 3 1 1 1 1 2 3 3 4 4 3 2 1 2 6 10 12 11 9 8 9 10 10 10 11 12 13 14 16 15 13 12 10 10 10 8 5 7
1 1 1 1 1 1 3 2 2 1 1 0 4 4 4 5 5 3 1 2 4 4 3 3 3 2 1 1 1 1 1 1 1 0 1 2 2 1 1 1 1 2 0 2 3 3 3 4 4 2 1 2 2 2 2 2 2 3 3 2 1 0 3 6 10 13 13 12 10 10 11 11 12 13 14 14 15 16 16 16 14 13 12 13 11 9 11
1 1 0 1 1 2 4 2 3 2 2 3 4 4 3 5 4 1 1 2 3 3 3 3 3 2 0 1 2 2 1 1 1 2 2 1 1 1 2 1 2 3 3 3 3 3 4 3 1 1 1 1 2 3 2 1 0 1 2 1 1 3 4 6 9 11 11 10 10 11 12 11 10 12 14 15 14 13 13 13 14 13 13 14 14 12 13
1 1 1 1 2 2 2 1 3 2 1 3 4 3 3 4 3 0 1 3 3 4 4 2 1 2 2 2 1 0 1 1 2 2 0 1 1 2 2 2 4 4 4 3 3 3 4 4 2 2 2 3 2 4 4 3 2 3 3 4 6 8 8 7 7 8 8 7 7 8 9 9 7 8 10 12 13 11 10 13 15 14 14 16 16 16 15
1 0 1 2 1 3 2 2 2 2 2 3 3 3 3 3 2 1 3 5 4 3 2 1 1 2 2 1 1 0 1 1 2 1 1 1 0 2 3 4 4 4 3 3 2 3 4 4 4 4 4 4 5 5 4 4 4 5 5 6 8 9 8 8 7 8 7 6 4 4 5 5 4 4 7 11 13 11 10 13 14 12 12 14 16 17 16
Wind_Direction
350 354 358 1 4 5 4 5 4 4 1 357 360 359 15 119 316 207 166 162 147 100 38 321 350 243 261 262 279 302 295 289 319 335 352 8 356 336 335 345 358 25 11 354 2 359 3 71 91 267 280 254 226 157 121 137 122 96 43 296 297 356 81 351 293 289 296 282 119 82 62 55 52 4 353 13 257 180 153 172 164 116 116 106 84 127 262
351 357 0 2 4 4 4 5 5 6 3 352 347 355 92 187 289 234 176 179 160 80 107 291 328 278 298 331 309 304 296 305 343 342 340 357 349 335 346 342 339 357 2 27 29 8 9 88 56 295 302 309 327 27 61 77 76 85 100 335 308 306 336 68 358 338 334 332 19 54 32 41 40 315 339 357 343 64 108 113 104 118 194 154 126 209 241
353 358 1 3 4 3 4 5 4 5 1 343 283 246 35 56 294 298 198 187 162 86 181 165 194 279 334 346 316 320 308 291 3 349 327 343 351 11 334 320 335 8 17 45 31 18 36 35 354 2 345 322 330 8 53 66 74 95 48 31 42 212 53 90 102 160 193 201 187 192 228 32 354 328 357 6 0 12 99 111 101 146 197 155 137 168 170
354 359 3 4 3 5 5 4 6 5 354 319 214 206 159 86 102 329 329 28 78 0 237 109 115 273 27 6 316 337 330 313 353 7 6 2 2 19 337 334 10 17 20 49 28 7 18 22 17 11 349 319 305 358 56 62 60 62 39 22 40 92 39 75 121 159 192 202 203 175 135 103 53 6 11 12 358 357 83 117 147 165 157 166 190 151 141
356 -0 4 4 5 7 6 5 9 6 348 296 199 195 83 86 136 157 156 340 19 -0 335 45 76 40 90 73 324 355 357 339 348 357 -0 5 3 9 2 11 33 12 2 52 35 347 358 24 23 350 326 306 312 352 59 61 55 63 45 16 41 66 1 346 1 318 219 132 118 102 97 94 76 44 22 8 359 10 47 90 176 141 128 198 209 147 142
357 1 4 6 8 9 9 9 12 11 1 3 158 166 7 100 194 161 137 163 223 33 323 102 69 33 71 80 351 11 9 355 350 333 323 1 15 24 2 3 17 8 3 63 49 351 2 12 1 329 317 328 333 343 24 44 53 75 63 26 68 83 356 345 334 316 354 33 65 91 89 85 72 57 34 11 3 12 27 1 288 147 146 177 168 147 146
358 3 6 8 10 12 13 13 15 21 32 74 95 67 325 85 12 321 83 117 189 199 216 121 78 36 32 36 356 8 6 349 324 318 332 353 9 40 35 351 350 356 17 76 78 22 36 353 320 306 329 333 336 352 3 5 23 65 79 50 70 98 18 345 321 311 8 17 12 56 89 87 64 51 37 16 1 4 26 13 349 45 133 141 136 133 130
359 4 8 10 13 15 16 17 19 25 48 80 72 50 22 94 284 307 18 32 233 197 97 80 88 34 15 39 321 331 2 337 306 328 16 14 346 14 33 342 332 344 19 59 70 65 142 210 259 270 329 326 333 16 11 308 343 14 85 69 29 62 16 318 339 4 9 9 1 12 84 96 67 42 29 16 1 360 17 11 8 44 90 118 123 122 108
359 4 9 11 15 18 19 20 21 25 42 70 72 37 7 316 247 261 77 17 343 58 94 89 101 29 1 157 244 319 312 294 302 324 351 125 60 337 344 330 329 348 9 10 329 290 274 254 256 249 251 260 244 209 217 176 32 352 55 69 45 90 86 317 15 43 348 356 357 348 70 83 60 29 13 3 354 352 353 341 358 74 109 118 119 125 139
359 4 11 14 17 21 22 23 22 25 38 55 65 2 353 348 309 15 92 79 354 19 81 52 61 40 322 246 228 253 263 286 2 5 317 314 165 263 301 329 345 358 345 318 279 274 279 271 267 258 245 247 234 227 257 244 192 200 99 65 62 125 120 114 54 79 335 344 347 315 353 61 47 13 359 342 311 291 315 350 21 56 112 134 141 151 149
359 4 13 15 18 23 25 26 26 27 35 48 60 352 350 357 321 357 73 81 351 345 64 43 38 15 337 324 284 222 257 312 353 112 293 303 292 291 296 339 19 333 271 254 254 271 274 263 260 253 247 258 268 306 310 297 151 142 128 102 48 94 119 136 135 118 308 328 342 347 33 60 71 354 3 339 312 314 53 56 39 37 58 129 134 125 119
359 4 13 16 19 23 26 27 28 29 35 44 51 22 5 4 350 49 81 95 352 347 65 63 13 350 358 1 355 314 238 294 288 180 188 282 291 306 297 263 75 271 256 261 283 303 298 282 269 252 245 250 281 37 23 27 51 66 106 125 117 103 108 119 108 108 132 334 6 48 76 71 228 289 358 356 335 1 76 78 49 33 40 68 87 98 103
359 4 13 17 20 24 25 27 29 31 36 42 42 30 19 18 45 92 96 102 31 350 27 23 1 13 18 16 15 17 19 343 326 324 289 275 290 308 295 200 182 263 273 286 300 312 317 318 326 311 300 12 68 72 58 45 36 36 62 101 122 129 119 103 77 79 106 62 43 85 146 316 326 339 1 11 358 1 50 68 44 25 42 74 82 87 96
359 3 13 17 19 24 24 25 29 32 37 42 39 33 26 24 46 104 102 105 78 337 5 25 359 8 20 15 11 11 8 3 352 332 299 267 273 285 277 271 296 295 293 300 315 339 3 356 7 2 -0 29 46 54 62 51 31 28 40 55 87 119 125 111 69 45 106 104 63 66 54 335 348 357 351 6 24 334 3 73 47 23 59 101 100 98 104
360 4 14 17 19 24 24 24 28 31 36 44 44 38 28 22 32 129 117 119 116 19 21 27 327 342 19 15 12 21 8 359 355 332 317 319 298 291 290 297 304 308 317 346 356 19 38 49 51 26 10 47 77 333 351 37 18 17 32 49 56 71 124 135 120 91 100 106 90 66 55 339 311 294 289 241 183 219 259 130 54 21 65 126 123 118 120
0 3 11 17 19 23 25 25 26 29 34 42 45 40 31 25 41 107 98 102 112 52 333 307 326 40 48 6 358 33 33 349 342 337 332 339 331 318 317 315 320 336 358 14 27 40 40 59 101 95 63 136 151 154 347 7 350 338 357 42 49 45 49 87 95 90 75 96 108 103 95 240 264 280 286 273 230 265 285 129 53 10 42 132 133 132 137
1 3 9 17 19 22 26 26 25 27 30 36 43 41 33 29 44 90 90 76 99 92 305 330 61 61 50 14 345 10 30 342 340 20 332 317 315 323 329 331 342 359 13 27 27 28 40 49 69 78 43 302 126 123 13 28 25 333 336 14 37 37 30 43 59 52 53 79 90 74 71 256 278 292 294 292 301 329 6 135 133 24 57 106 120 130 143
0 2 8 15 17 22 28 26 25 27 29 38 52 48 36 30 40 76 94 83 93 87 335 43 76 68 48 58 351 342 14 346 350 29 324 307 309 320 324 332 349 354 5 39 44 31 38 30 47 95 59 329 70 104 45 35 61 319 341 27 37 32 23 45 66 48 46 80 89 59 287 273 295 297 293 290 303 19 86 185 212 155 114 99 100 106 108
0 -0 5 13 17 22 29 28 26 26 29 37 52 53 40 32 37 58 75 84 98 99 5 68 81 74 54 76 60 7 4 356 36 68 23 327 308 304 308 326 2 353 354 37 47 40 41 8 333 108 80 353 13 83 59 42 46 237 59 44 34 33 14 25 57 33 33 82 85 74 244 310 324 307 298 323 96 152 191 305 340 101 104 82 84 99 103
360 359 2 10 17 22 30 33 28 28 32 36 43 52 45 34 32 41 53 101 113 82 15 100 103 107 102 87 87 70 31 25 51 78 95 259 288 340 13 352 342 353 5 30 29 16 32 3 324 34 64 342 348 75 73 51 34 41 87 65 33 64 53 25 21 14 44 66 50 52 217 321 331 322 320 19 57 189 215 33 38 56 78 80 80 97 112
357 357 358 6 15 23 34 37 32 32 36 38 40 46 42 34 30 31 40 95 114 91 78 127 120 121 116 107 110 114 108 92 74 77 185 257 297 46 89 239 283 350 16 34 37 346 354 343 321 5 36 330 351 61 92 68 27 7 75 102 55 13 85 126 313 352 66 89 60 61 305 324 344 13 64 46 7 349 73 76 58 42 51 72 74 78 102
353 353 356 2 10 24 40 44 42 42 40 40 44 45 37 29 27 28 36 69 93 104 129 133 130 125 119 109 93 88 98 107 89 79 121 302 346 63 115 192 307 309 201 79 64 350 328 354 357 42 40 357 10 38 55 88 54 343 6 65 41 13 102 111 84 48 74 100 113 110 88 6 20 53 79 74 58 51 66 81 78 55 41 59 74 70 73
349 350 352 358 6 25 45 48 52 53 46 45 48 48 40 29 23 30 60 77 71 63 56 77 105 110 111 113 93 74 83 90 67 54 66 78 7 3 68 55 333 303 268 115 127 192 236 180 145 88 66 24 39 48 40 62 80 8 27 69 75 82 95 91 89 90 80 74 85 99 88 65 56 62 70 74 72 65 68 75 75 65 57 64 74 75 68
347 348 349 352 357 20 54 59 65 66 56 53 50 47 45 34 23 28 56 71 66 56 27 32 61 95 103 109 95 72 73 88 74 52 47 59 79 44 339 308 285 355 325 286 202 162 123 93 19 73 70 44 56 77 66 60 62 55 67 66 358 336 50 71 90 105 91 86 105 105 97 93 85 78 73 67 64 60 65 75 79 75 70 70 71 71 68
345 345 345 346 351 14 68 75 82 82 67 58 51 47 48 40 28 32 57 64 78 112 80 16 335 256 110 98 82 63 62 70 76 57 37 36 67 110 314 312 329 235 279 289 20 72 66 45 50 71 79 63 56 75 80 77 81 87 80 62 323 339 56 75 80 70 77 117 138 108 86 80 77 82 84 78 73 68 67 78 91 88 80 80 81 81 77
344 342 343 343 346 8 98 110 103 103 91 58 45 47 52 44 32 38 68 83 83 90 94 81 294 33 97 99 80 66 72 70 64 59 42 32 37 49 18 1 10 3 327 10 56 76 79 65 68 79 76 59 64 69 63 58 69 70 61 10 289 13 59 78 96 83 79 102 117 99 73 45 35 70 98 107 106 99 90 84 90 95 95 92 91 95 105
342 340 341 340 341 10 131 134 109 107 128 83 50 58 67 59 46 45 52 61 82 77 69 241 280 347 84 107 100 85 84 82 66 42 29 29 36 36 39 45 30 13 27 35 35 60 71 55 50 70 71 20 38 51 56 66 78 73 39 336 336 70 80 88 105 112 142 181 158 134 116 96 106 127 126 128 121 112 107 100 98 103 109 108 99 95 102
342 340 339 338 342 109 135 129 99 93 121 114 85 84 79 63 55 53 45 46 79 135 148 198 271 326 21 100 116 102 92 85 72 41 17 15 32 44 48 54 47 29 47 56 42 51 61 46 25 13 345 46 42 26 15 40 59 57 10 331 356 100 139 152 135 144 192 195 166 143 132 152 184 164 143 141 128 113 112 116 118 117 120 121 118 107 94
341 341 343 349 31 119 123 109 96 89 102 126 124 114 93 58 43 39 34 39 63 99 118 81 335 323 340 114 102 101 106 81 51 41 31 27 36 48 49 49 47 47 67 82 78 75 71 63 69 268 305 110 103 40 13 50 63 36 330 324 353 42 119 137 137 139 149 152 145 135 124 135 155 143 135 140 129 111 99 100 102 95 97 106 109 115 118
345 352 3 27 82 111 109 102 96 82 93 136 138 105 67 32 27 31 36 47 60 85 105 94 66 306 266 298 22 59 116 97 37 36 34 28 24 34 44 45 45 51 59 62 70 89 88 23 353 311 319 86 110 97 64 94 88 -0 324 355 34 44 43 65 105 116 110 108 105 96 100 109 111 102 97 104 109 106 101 107 108 102 105 108 102 103 122
1 11 31 59 89 108 106 97 90 77 83 126 136 88 70 292 5 24 38 41 44 85 97 98 115 326 336 321 337 36 78 86 39 36 32 19 9 20 40 47 41 45 56 54 22 49 85 54 7 336 333 25 82 102 116 101 85 2 330 26 57 64 54 38 45 73 97 99 78 67 71 84 93 86 73 86 105 108 112 121 110 99 103 112 117 123 130
12 23 48 80 99 110 105 92 87 84 82 90 96 92 113 224 350 16 36 46 68 109 94 72 59 19 337 293 319 7 20 31 45 41 26 12 12 21 31 40 45 46 67 80 29 8 56 101 51 353 345 23 71 89 86 92 115 181 180 87 76 74 73 68 61 63 77 88 83 73 56 43 76 107 130 142 128 118 114 111 99 87 89 106 122 130 132
16 30 66 100 107 107 103 94 90 86 79 80 85 74 47 25 18 26 39 52 71 102 101 95 107 137 262 253 331 3 11 18 32 30 13 356 14 31 16 10 23 29 36 59 78 340 11 74 65 5 341 22 80 85 66 81 147 189 170 124 111 100 91 90 87 81 80 86 95 104 114 125 131 132 135 136 130 123 119 108 83 66 66 77 101 118 119
20 44 85 111 114 111 110 101 88 80 68 68 77 39 19 17 28 41 43 55 78 68 55 80 108 20 331 6 347 349 8 34 40 29 2 327 359 45 18 348 14 32 11 24 72 39 10 38 69 20 341 1 61 74 55 34 108 162 138 108 101 98 96 96 100 104 111 109 107 125 146 148 134 115 117 132 140 138 134 124 105 89 72 55 70 116 120
29 72 105 117 117 114 110 89 77 80 82 82 46 15 18 21 34 49 45 45 68 68 12 41 95 112 45 58 350 321 -0 42 41 17 33 325 352 34 60 21 20 16 315 12 62 46 23 79 106 50 350 8 46 67 128 135 113 110 104 88 87 101 104 114 131 139 143 132 120 124 128 118 104 87 160 199 191 160 137 132 128 120 104 83 99 126 128
63 101 105 110 113 102 75 65 62 52 32 12 356 15 36 53 63 58 54 54 66 89 144 46 56 84 115 118 216 306 354 25 345 342 23 13 357 14 66 68 40 320 312 46 47 12 350 78 90 35 1 44 65 137 189 150 124 115 121 146 198 174 151 164 169 155 130 111 104 89 74 80 80 55 43 210 204 168 137 131 131 123 112 113 129 135 134
97 109 100 94 89 55 30 23 22 9 -0 12 16 25 53 80 72 44 42 48 46 55 101 93 58 13 130 134 227 314 358 30 5 4 16 11 341 344 31 55 37 313 10 37 25 301 315 33 78 63 22 50 101 228 216 148 121 118 122 120 116 128 144 160 154 123 93 81 85 75 60 57 42 26 56 80 115 156 154 161 162 150 139 141 151 154 153
105 110 80 53 49 48 11 337 358 18 22 33 38 35 40 64 57 22 11 32 16 359 56 88 56 344 57 85 346 324 356 39 25 27 27 344 352 2 19 40 46 51 45 4 268 251 18 18 66 81 33 327 4 286 201 133 118 121 122 108 88 103 133 150 140 119 104 91 100 109 100 81 13 353 65 98 104 150 185 196 190 167 154 155 160 162 162
92 61 39 47 63 145 310 354 10 21 23 31 41 43 18 34 51 16 328 3 16 343 20 72 64 12 84 94 354 323 28 68 50 38 28 5 23 22 18 15 30 65 63 324 285 23 48 13 44 71 20 323 354 27 65 93 85 72 79 75 65 90 130 151 155 147 148 163 176 173 163 159 173 189 155 141 91 68 145 182 183 171 162 163 166 166 166
48 13 25 51 352 341 5 9 356 358 20 27 29 41 39 29 55 157 291 32 32 341 0 99 80 12 89 112 109 344 16 69 101 118 112 340 212 118 81 59 47 66 61 324 298 40 77 51 51 72 28 274 284 71 82 82 72 49 52 62 59 64 87 118 152 161 163 171 183 185 176 167 161 149 136 132 121 99 114 161 188 190 183 177 176 175 173
17 10 3 300 310 336 359 357 345 5 40 47 21 31 61 341 304 30 82 61 30 300 280 88 63 10 13 85 104 46 341 330 142 124 110 329 326 66 66 304 313 72 68 280 281 67 82 63 55 91 228 240 223 162 101 90 82 57 57 71 69 65 64 59 51 71 137 152 158 162 163 161 154 141 133 133 138 145 160 182 195 195 190 188 186 182 179
27 7 327 313 313 328 2 8 358 13 44 58 27 12 23 254 305 21 72 99 145 239 340 64 111 140 15 76 106 136 292 322 28 77 80 318 296 91 93 318 36 69 189 253 287 55 61 59 78 216 238 234 206 150 111 107 120 110 86 85 82 76 74 67 47 37 55 103 123 128 135 139 136 130 131 137 143 155 181 205 217 221 215 207 199 189 181
122 308 331 330 326 350 26 6 3 38 44 48 58 41 351 337 0 46 0 306 337 75 20 13 110 106 33 45 84 97 335 6 45 79 90 331 310 66 58 29 45 129 229 257 50 57 64 145 180 211 228 229 207 164 138 140 151 144 122 106 97 86 82 86 75 55 52 72 107 127 129 129 133 135 139 149 159 166 202 236 244 251 251 221 205 198 189
183 302 5 4 350 35 39 342 328 68 60 16 112 114 115 290 311 95 123 279 343 59 71 100 89 82 53 36 69 23 333 0 51 66 62 346 12 62 65 7 248 231 269 22 43 46 214 190 211 225 218 217 230 213 170 151 148 145 144 136 112 97 61 52 67 47 35 39 55 88 99 94 88 75 48 23 318 236 237 239 244 253 262 237 209 204 200
118 35 47 35 347 348 58 5 326 29 125 216 196 150 158 180 167 139 172 199 141 89 65 62 84 97 136 284 50 57 302 12 45 39 97 53 39 43 107 232 252 39 50 38 22 22 22 339 319 303 206 215 251 256 205 175 166 151 133 101 67 228 252 303 316 310 331 24 71 98 97 79 52 24 2 353 348 317 242 230 234 246 263 263 232 213 206
112 130 92 82 322 290 96 87 317 298 188 203 198 163 153 155 154 148 141 100 93 94 89 79 86 89 55 320 8 62 61 65 58 322 115 84 66 302 224 115 48 42 43 29 18 32 242 261 281 285 214 215 235 240 223 213 187 142 135 156 208 228 232 235 243 257 264 265 259 226 188 216 257 265 270 283 298 300 275 252 243 249 264 267 254 229 213
33 252 92 89 319 304 66 144 219 218 188 175 167 152 144 144 137 104 68 87 115 116 96 65 70 76 38 20 64 33 0 61 73 327 27 82 101 284 17 53 50 83 107 88 301 240 235 249 267 264 233 211 211 222 240 249 114 106 111 149 202 229 262 268 259 252 253 260 267 263 255 256 259 254 251 255 261 262 264 269 275 285 286 278 270 252 217
81 92 86 105 184 208 209 225 234 252 129 151 145 135 119 106 97 81 60 89 110 105 86 65 58 36 352 15 73 65 339 38 58 311 339 87 88 356 21 36 333 269 142 146 186 217 231 235 232 231 239 314 323 331 5 37 66 75 73 80 108 123 308 295 279 263 250 246 253 258 257 257 255 250 248 252 256 258 262 265 264 268 279 279 269 239 200
120 79 75 126 171 242 254 225 140 112 288 136 109 99 90 99 114 139 155 90 89 96 111 115 106 90 330 335 55 59 15 35 70 0 20 54 74 121 112 95 314 305 258 185 198 213 227 225 213 186 96 65 67 65 57 60 73 78 85 101 119 32 327 317 307 290 266 244 236 244 250 253 254 253 250 249 253 261 270 273 266 261 271 278 268 232 198
75 74 84 108 84 322 309 358 77 58 338 23 75 96 107 107 110 103 349 72 84 64 47 60 76 81 19 5 47 37 330 286 113 83 50 36 171 155 119 133 213 217 221 233 237 236 239 240 218 83 43 68 120 131 149 240 322 91 114 149 223 259 268 291 314 314 293 264 256 261 259 253 250 251 250 246 244 250 267 277 273 267 273 278 270 244 217
38 37 293 197 150 185 260 33 95 114 100 94 112 137 128 112 116 333 10 74 81 59 50 64 95 58 44 40 51 112 256 333 52 70 100 237 187 120 118 191 219 216 226 249 243 218 218 219 189 174 263 280 235 200 208 238 247 219 213 229 244 252 256 265 288 308 310 301 292 282 269 257 254 259 254 242 229 225 240 260 266 270 278 279 267 248 234
77 47 297 293 220 185 176 130 112 129 116 104 120 132 116 125 171 189 68 71 77 80 99 134 107 74 78 160 234 141 86 51 38 46 228 254 179 128 160 196 216 217 214 214 201 198 213 219 207 205 229 254 250 239 247 271 268 243 236 247 258 265 273 278 284 297 310 314 303 276 259 253 251 246 234 224 217 220 239 255 263 277 291 281 257 238 233